Theta_e
304 300 304 304 300 300 299 300 300 298 298 298 298 298 298 299 299 299 300 304 305 302 300 304 307 305 304 305 307 316 323 325 325 326 326 319 318 310 308 310 310 308 308 308 306
306 301 298 297 297 297 298 299 298 298 298 298 298 297 299 300 301 300 300 302 301 299 303 308 307 303 302 305 310 320 322 323 321 316 316 314 316 311 311 309 309 306 303 304 304
302 299 299 298 298 297 297 298 298 298 298 298 298 297 298 300 304 302 301 300 299 300 303 306 307 304 304 308 314 316 321 319 314 311 308 310 315 310 311 309 308 306 303 300 301
304 300 300 301 301 300 299 298 298 298 297 297 298 297 298 301 299 300 299 299 300 301 304 306 305 305 313 311 312 316 314 315 311 306 307 310 302 309 308 312 309 305 303 301 300
305 306 308 309 311 303 301 299 298 298 297 297 298 297 299 298 297 299 299 300 301 303 305 304 307 311 313 313 313 314 314 308 305 304 304 303 305 306 306 306 302 303 302 302 301
311 312 313 313 313 300 297 297 297 298 297 297 297 298 299 296 298 299 299 300 301 301 302 303 304 305 311 311 312 308 307 307 304 304 303 304 305 304 307 305 304 302 302 302 301
313 314 313 313 313 304 299 298 298 298 297 297 297 299 298 296 298 298 299 299 300 301 302 303 302 303 306 309 305 305 309 307 306 303 304 301 308 303 305 304 305 305 300 301 302
313 313 313 314 313 305 300 300 301 297 296 297 298 299 294 298 297 298 299 300 300 300 301 301 302 303 304 303 304 307 306 311 308 302 303 306 313 311 304 301 302 302 300 298 300
313 313 313 313 313 305 302 301 300 297 297 298 299 297 296 297 297 298 298 300 300 299 300 300 302 303 303 305 306 305 308 308 310 302 301 304 309 308 300 299 300 299 297 298 297
313 312 312 313 313 307 307 303 300 298 297 298 297 297 296 296 298 297 298 299 300 300 300 301 300 301 301 304 311 306 307 307 307 303 301 300 302 303 302 300 298 298 297 296 298
312 312 312 313 313 308 308 300 298 300 299 296 296 296 297 297 297 297 298 299 299 300 298 300 298 299 302 302 303 302 303 301 301 301 301 300 301 302 302 298 298 299 298 298 298
309 310 312 313 313 308 306 298 297 298 299 299 298 297 297 297 298 297 298 298 299 298 299 297 297 298 300 300 301 301 301 300 301 301 300 300 300 302 302 301 301 301 301 300 300
304 306 310 311 313 310 302 301 298 299 298 300 298 297 296 296 296 296 297 297 298 298 298 297 299 299 300 300 300 300 300 300 302 302 300 299 301 302 303 301 301 302 302 301 301
301 302 303 309 311 311 304 304 299 299 296 304 298 298 297 297 296 297 298 298 298 298 298 297 298 299 299 300 299 299 299 301 302 302 300 302 301 302 304 304 304 303 300 301 299
298 299 300 302 307 310 307 305 300 300 311 304 297 297 297 297 297 297 297 298 297 298 298 298 297 298 299 298 298 299 300 301 301 301 301 301 301 300 302 305 306 303 301 299 298
297 298 298 298 304 311 305 303 303 311 310 301 296 296 297 297 298 297 298 298 298 298 298 297 296 297 298 297 298 298 300 301 301 300 301 300 300 299 303 305 307 305 304 301 299
295 295 296 297 303 304 305 306 313 319 304 302 296 297 297 297 297 298 298 298 297 294 297 298 297 296 296 297 297 299 299 303 303 299 303 301 301 302 303 304 304 306 303 302 298
294 294 293 294 294 304 306 309 316 314 303 302 299 297 297 297 297 297 297 296 295 299 295 297 298 295 295 296 297 298 298 303 301 308 308 301 304 306 304 303 302 302 302 300 298
294 293 292 293 294 299 308 312 311 311 311 303 298 298 293 299 298 296 296 296 297 297 299 297 301 295 295 295 296 297 300 301 302 296 302 302 301 302 304 302 302 301 299 299 299
294 293 292 295 296 302 305 308 306 309 307 301 308 303 297 295 298 297 297 296 299 297 295 299 301 296 295 295 295 297 297 300 299 297 301 304 303 304 306 305 301 301 299 298 298
293 292 294 298 299 301 304 305 303 306 311 310 312 310 304 303 299 299 301 299 297 299 298 296 300 297 295 294 296 296 298 297 298 302 304 307 306 302 303 304 302 300 299 298 297
292 289 293 294 299 301 302 300 303 303 305 308 309 312 314 310 303 307 306 303 299 299 302 301 302 296 295 294 294 295 298 299 300 301 303 307 306 304 302 303 302 303 301 299 297
292 289 292 294 294 299 301 302 302 303 303 305 308 309 310 312 310 304 303 301 299 300 302 302 303 298 297 295 292 292 295 298 299 300 301 303 305 301 303 304 303 304 303 300 298
291 291 284 293 291 295 296 299 301 301 302 303 303 305 306 310 311 309 309 304 299 301 304 304 305 307 308 300 294 292 291 297 297 297 303 304 304 305 303 303 302 302 303 301 299
291 291 287 282 287 295 295 296 297 297 297 300 302 302 303 305 306 308 308 300 299 302 300 304 305 306 307 302 296 297 292 296 298 301 301 303 301 301 301 301 301 300 300 300 300
289 290 290 286 287 290 290 293 293 294 296 297 298 298 300 303 304 306 306 308 309 300 300 300 307 303 307 306 304 305 304 295 298 299 299 300 299 301 300 298 298 299 299 299 299
289 289 289 289 285 287 288 291 291 292 292 294 294 294 295 298 298 297 297 300 302 303 302 300 303 302 309 307 307 305 305 305 301 297 299 300 300 301 300 300 301 302 300 300 299
Wind_Speed
15 14 14 13 13 13 13 12 12 12 13 14 13 13 12 14 13 9 6 6 6 6 9 6 2 2 4 2 3 4 2 5 6 6 7 2 4 1 1 5 1 1 5 3 32
15 14 15 16 16 15 15 14 14 14 13 13 12 11 11 11 12 11 11 10 8 8 4 4 2 7 2 3 3 5 4 8 4 2 4 4 3 6 5 3 3 1 3 13 34
16 16 16 17 17 18 18 17 16 15 14 14 11 9 8 8 5 5 5 10 10 7 6 3 4 5 2 3 3 5 6 3 2 1 2 4 3 3 5 5 8 12 8 9 14
17 18 19 21 22 20 18 19 19 17 15 14 10 7 5 2 5 1 2 5 6 6 5 2 4 6 3 4 5 3 4 3 1 1 3 3 6 5 7 7 4 9 16 14 16
20 20 21 22 26 23 21 19 18 17 15 12 8 4 1 1 8 4 4 3 4 6 7 3 4 2 7 4 2 5 3 2 4 4 5 3 8 7 7 10 2 7 12 18 16
21 23 24 26 30 24 20 18 18 15 14 9 5 2 2 4 3 4 4 2 6 8 5 7 3 4 4 4 8 5 4 6 6 6 4 5 5 2 8 14 10 7 14 15 16
23 24 25 28 31 26 25 24 20 16 12 5 4 3 1 12 4 3 2 3 6 6 3 4 4 1 4 2 4 2 3 5 7 5 5 3 10 13 12 6 12 12 11 15 19
23 25 27 29 32 25 25 23 18 11 5 4 6 4 7 4 5 5 4 3 2 4 5 2 3 3 2 3 2 4 1 2 1 8 3 5 14 3 0 9 12 11 9 10 14
23 25 26 27 31 27 26 21 7 2 3 5 5 3 8 2 3 5 4 2 1 1 3 2 2 3 1 2 2 1 5 5 4 7 4 6 10 6 4 5 10 10 9 10 10
22 23 26 28 29 24 26 10 2 3 5 4 1 3 2 3 2 2 3 4 2 2 2 1 2 3 1 4 6 6 6 5 5 5 4 4 22 17 13 6 11 10 10 11 13
22 22 23 26 28 21 24 4 6 3 1 8 6 5 3 2 2 2 3 5 2 2 5 2 3 9 14 9 2 3 3 4 3 3 3 9 18 19 15 9 12 16 14 14 17
19 21 21 21 24 16 12 4 1 3 9 8 9 6 2 4 2 4 6 5 5 6 5 2 9 8 2 5 6 4 4 6 4 2 3 6 18 18 17 13 16 19 18 20 16
22 22 21 21 18 6 7 2 4 2 3 7 5 4 4 9 6 7 10 6 5 6 8 8 4 3 5 4 5 4 6 4 5 3 4 6 11 8 8 9 10 16 17 15 19
25 25 25 24 5 8 3 5 2 3 3 6 4 3 3 3 4 3 9 4 4 10 7 7 3 5 4 5 7 5 4 2 2 1 4 1 7 7 7 11 7 9 10 14 13
25 25 25 19 16 5 2 2 1 1 5 3 3 3 4 4 4 2 3 2 6 6 6 7 6 5 4 5 7 5 2 3 2 2 4 2 3 8 5 8 11 8 10 10 9
26 26 25 21 16 10 5 1 2 2 9 4 5 6 4 4 2 3 2 2 2 4 0 3 1 3 4 3 2 5 5 6 5 2 3 8 8 5 5 6 5 3 5 6 8
27 27 27 21 7 5 8 5 3 6 3 4 5 6 4 7 5 6 6 6 6 4 5 0 4 2 3 4 4 2 6 1 3 1 7 3 4 5 10 9 6 3 7 6 6
29 31 30 25 25 14 10 0 11 7 8 1 3 3 5 7 5 7 6 4 7 2 3 7 5 9 6 6 6 7 6 5 8 4 3 2 8 7 10 9 9 8 6 5 6
31 26 23 29 15 21 6 12 11 11 8 9 3 4 4 4 5 4 8 6 9 14 10 5 5 2 2 1 3 6 6 3 4 1 3 5 7 10 10 10 5 7 5 8 8
21 23 17 18 13 16 9 28 11 10 2 4 11 9 8 5 8 8 9 5 6 15 2 7 1 1 2 2 2 4 1 2 2 2 5 5 6 8 5 6 6 6 10 8 6
10 4 7 13 9 6 16 18 16 18 6 12 16 8 8 7 7 5 6 4 6 5 3 4 4 0 2 8 11 4 3 2 2 4 5 2 6 7 8 7 9 10 8 8 8
5 2 5 13 5 4 15 7 5 8 9 22 3 13 16 11 6 14 13 8 7 7 8 5 4 5 9 1 1 2 6 7 4 6 4 3 11 2 5 2 6 3 6 6 7
3 3 10 5 5 8 7 9 5 15 8 5 8 12 13 14 8 8 6 4 9 10 9 6 3 1 5 4 4 5 6 4 4 2 8 6 7 2 2 3 2 3 1 4 7
3 4 4 3 3 14 17 10 15 5 7 7 7 7 5 9 15 6 7 3 3 5 13 9 3 6 9 5 5 4 5 13 6 3 9 17 8 3 2 5 5 5 3 6 7
2 3 3 3 4 7 9 9 20 14 4 5 5 16 19 8 15 16 15 3 2 7 0 8 10 14 23 8 5 5 5 10 17 25 9 24 14 9 8 8 7 6 7 6 8
3 3 4 2 2 8 4 5 15 13 5 11 8 15 15 6 12 13 5 6 14 4 6 3 7 3 14 18 8 12 11 10 20 20 18 22 16 1 6 7 7 8 7 7 9
5 5 1 7 3 2 4 9 13 17 7 5 10 13 10 13 7 5 11 11 8 3 11 11 8 7 5 7 9 5 23 18 12 11 16 16 19 5 10 14 15 15 9 12 12
Wind_Direction
7 1 354 347 341 336 332 327 323 318 316 315 309 306 309 312 298 267 243 233 211 272 291 294 267 189 176 215 223 150 177 232 230 200 245 227 180 33 199 127 165 121 159 277 163
3 360 352 345 339 334 332 325 322 315 308 310 309 310 320 319 299 244 233 227 252 292 243 180 183 158 185 219 211 165 185 220 212 218 261 284 214 177 152 156 206 172 12 142 155
1 357 353 349 342 337 331 327 321 314 305 309 303 304 326 328 297 242 208 233 262 271 229 202 238 184 203 174 221 192 218 204 265 283 274 272 280 218 156 224 212 199 167 157 161
5 5 360 355 347 336 329 323 319 315 310 310 296 296 322 331 280 163 212 272 260 217 194 126 254 166 159 204 217 233 251 245 269 268 307 268 322 280 204 227 249 199 167 167 177
8 7 4 359 349 335 325 317 312 311 306 304 282 273 300 302 250 227 297 276 200 180 183 138 257 251 164 189 211 221 261 256 239 247 249 287 249 236 253 247 192 151 167 182 187
7 3 0 357 353 344 335 326 315 306 303 298 266 238 150 246 215 265 296 224 206 208 199 156 248 313 280 222 166 185 211 257 239 238 232 232 255 145 224 228 226 181 192 194 194
359 358 355 353 351 344 338 325 313 298 292 265 228 195 207 242 225 261 249 224 216 213 218 194 177 320 331 286 337 172 253 282 221 209 238 152 280 231 229 199 219 218 205 203 206
352 350 350 350 348 343 337 328 312 299 258 209 183 172 244 232 230 235 221 198 213 220 227 208 186 225 224 196 29 289 122 265 198 148 202 144 264 226 34 191 229 231 217 217 215
340 341 344 346 347 345 338 326 303 186 168 172 166 157 267 215 209 217 205 194 194 234 211 174 168 191 144 154 343 190 275 219 301 200 139 172 268 262 102 184 244 241 236 219 227
328 331 337 341 345 345 345 341 27 120 142 162 304 20 254 241 182 192 187 178 151 118 57 174 67 167 226 157 222 204 220 251 232 206 198 210 262 268 269 249 243 245 237 232 221
322 328 332 336 340 340 350 326 11 355 119 206 205 217 159 172 200 208 171 143 120 103 182 243 149 213 205 199 178 146 222 261 277 203 211 229 257 261 272 251 251 241 234 232 230
329 329 330 333 336 331 351 64 176 281 301 234 245 271 183 166 173 220 169 155 157 195 129 49 237 237 245 207 229 231 250 260 259 146 205 292 273 274 265 250 233 241 231 229 222
339 333 326 328 329 336 359 19 298 240 252 289 198 186 196 169 217 213 158 167 178 169 195 178 222 146 166 180 189 228 207 219 236 312 227 307 274 257 259 249 252 242 241 226 218
337 334 333 327 298 331 275 337 339 190 33 261 222 237 127 179 247 139 197 162 186 205 175 230 228 177 173 212 166 247 206 162 170 121 248 169 286 281 276 277 254 248 224 229 215
333 333 333 325 289 273 231 350 110 156 321 217 192 142 143 176 135 228 175 100 180 183 126 236 174 176 184 208 167 227 118 142 109 183 355 232 280 272 272 276 263 271 238 223 214
330 331 329 332 310 252 247 114 96 60 245 245 147 173 146 194 201 128 150 351 119 132 129 253 340 200 200 79 36 132 70 43 47 68 296 199 190 232 228 238 286 295 303 232 217
320 319 317 306 259 249 204 111 297 218 338 254 204 167 193 188 196 171 168 177 170 105 221 192 215 188 152 95 22 97 101 327 341 347 231 151 183 262 267 248 232 255 272 246 209
316 313 306 287 274 278 247 276 222 224 240 303 143 121 196 159 229 177 150 216 236 136 120 165 283 169 180 200 177 184 174 170 206 205 252 37 234 253 243 282 254 259 235 195 190
313 314 299 292 277 234 214 228 222 209 189 157 134 161 279 246 177 150 196 214 208 180 180 142 261 144 125 137 146 192 206 198 103 67 35 225 280 294 261 255 258 232 188 213 211
316 305 280 298 255 205 232 230 225 219 154 155 193 180 202 218 179 178 180 207 229 193 166 201 100 238 134 147 231 178 223 110 359 186 246 272 265 233 273 246 225 233 227 232 243
310 303 289 309 217 205 215 228 236 242 238 239 236 205 206 169 201 211 210 256 213 171 134 139 126 169 84 205 183 156 204 201 138 168 182 273 258 220 236 209 212 232 232 221 223
225 245 262 335 250 233 230 217 265 270 239 242 283 224 223 213 213 218 217 230 144 148 160 216 150 172 205 262 357 243 189 165 142 224 230 179 256 275 264 178 208 257 240 227 228
265 247 256 281 270 283 274 264 272 272 292 280 243 245 256 244 240 199 214 256 163 153 172 191 203 88 341 353 354 207 208 206 116 90 216 150 254 301 185 85 67 147 168 194 205
290 287 317 176 221 264 291 275 264 282 288 266 284 311 287 246 235 242 229 247 138 182 175 120 198 204 219 192 135 197 211 197 162 159 221 230 218 337 282 219 200 206 182 212 215
287 279 219 276 280 271 278 293 289 284 320 309 289 233 255 257 260 245 239 165 120 181 83 164 209 206 230 188 174 197 190 203 206 227 196 249 225 226 243 235 246 267 281 247 232
297 349 312 276 313 310 329 303 278 318 343 277 271 327 296 288 262 275 316 225 231 173 176 198 231 162 252 231 215 242 253 212 224 243 252 262 269 16 281 308 319 297 274 266 260
227 257 236 298 314 300 278 295 276 313 279 287 334 329 320 318 6 315 272 274 282 259 179 171 171 168 235 195 235 219 231 230 226 210 223 243 251 215 262 264 258 260 272 260 252